Regional Weather Roundup
Issued by NWS

Home | Current Version | Previous Version | Text Only | Print | Product List | Glossary On
Versions: 1 2 3 4 5 6 7 8 9 10 11 12 13 14 15 16 17 18 19 20 21 22 23 24 25 26 27 28 29 30 31 32 33 34 35 36 37 38 39 40 41 42 43 44 45 46 47 48 49 50
000
ASCA42 TJSJ 301510
RWRPR
PUERTO RICO/U.S. VIRGIN ISLANDS HOURLY WEATHER ROUNDUP
NATIONAL WEATHER SERVICE SAN JUAN PR
1100 AM AST THU MAR 30 2017

PRZ001>002-007>008-010-301600-
PUERTO RICO

CITY           SKY/WX    TMP DP  RH WIND       PRES   REMARKS
SAN JUAN LMM   MOSUNNY   81  70  69 NE10      30.02S
AGUADILLA      PTSUNNY   81  68  65 E14G21    30.04R
CEIBA          PTSUNNY   84  72  65 NE10      30.04R
$$

VIZ001>002-301600-
U.S. VIRGIN ISLANDS

CITY           SKY/WX    TMP DP  RH WIND       PRES   REMARKS
CHARLOTTE AMA  MOSUNNY   81  70  69 E6        30.01S
CHRISTIANSTED  MOSUNNY   82  70  65 NE15      30.01S
$$

HOURLY WEATHER ROUNDUP FOR THE NEWS MEDIA

CITY           SKY/WX    TMP DP  RH WIND       PRES   REMARKS
ORLANDO        SUNNY     80  63  55 S13       30.01F
NEW YORK       PTSUNNY   44  22  41 N13       30.27F
NEWARK         PTSUNNY   46  23  40 VRB3      30.26F
CHICAGO        LGT RAIN  43  39  86 E17       29.75F
HARTFORD       SUNNY     44  21  40 VRB7G18   30.20F
BOSTON         MOSUNNY   42  21  43 NW9       30.21F
DALLAS         MOSUNNY   60  44  55 W12       29.85F
PHILADELPHIA   CLOUDY    45  23  42 E6        30.27F
LOS ANGELES    MOSUNNY   60  57  89 CALM      29.96R
WASHINGTON DC  CLOUDY    48  30  49 SE8       30.24S


USA.gov is the U.S. government's official web portal to all federal, state and local government web resources and services.